Regional Weather Roundup
Issued by NWS

Home | Current Version | Previous Version | Text Only | Print | Product List | Glossary Off
Versions: 1 2 3 4 5 6 7 8 9 10 11 12 13 14 15 16 17 18 19 20 21 22 23 24 25 26 27 28 29 30 31 32 33 34 35 36 37 38 39 40 41 42 43 44 45 46 47 48 49 50

000
ASUS43 KDTX 032310
RWRMI
MICHIGAN HOURLY REGIONAL WEATHER ROUNDUP
NATIONAL WEATHER SERVICE DETROIT/PONTIAC MI
700 PM EDT TUE MAY 03 2016

NOTE: "FAIR" INDICATES FEW OR NO CLOUDS BELOW 12,000 FEET WITH NO
SIGNIFICANT WEATHER AND/OR OBSTRUCTION TO VISIBILITY.

MIZ047>049-052>055-059>063-066>070-074>076-081>083-040000-
SOUTHEAST LOWER MICHIGAN

CITY           SKY/WX    TMP DP  RH WIND       PRES   REMARKS
ADRIAN         SUNNY     60  38  43 W6        29.81F
ALMA           SUNNY     62  32  32 W14G22    29.75F
ANN ARBOR      MOSUNNY   59  37  44 SW6       29.79F
BAD AXE        PTSUNNY   63  35  35 SW10G16   29.73F
CARO           MOSUNNY   63  37  38 SW9       29.73F
DETROIT CITY   PTSUNNY   59  40  49 S13       29.80S
DETROIT        PTSUNNY   59  43  55 S14       29.80F
FLINT          PTSUNNY   65  35  33 SW10      29.76F
GROSSE ILE     SUNNY     55  48  76 S8        29.80S
HILLSDALE      CLOUDY    61  29  29 W8        29.81S
HOWELL         CLOUDY    61  34  36 SW7       29.78F

CITY           SKY/WX    TMP DP  RH WIND       PRES   REMARKS
JACKSON        CLOUDY    61  35  37 SW10      29.79F
LAMBERTVILLE   PTSUNNY   61  46  56 SE5       29.82S
LANSING        PTSUNNY   63  33  32 W18       29.78F
LAPEER         PTSUNNY   61  34  35 SW3       29.76F
MASON          CLOUDY    63  37  37 W8        29.78F
MONROE         MOSUNNY   58  47  66 S15       29.80F
MT. CLEMENS    MOSUNNY   58  44  58 S16       29.78F
PONTIAC        PTSUNNY   61  34  36 SW6       29.77F
PORT HOPE        N/A     58  37  45 SE12      29.71F
PORT HURON     SUNNY     61  39  44 S10       29.78F
TRI CITIES     CLOUDY    66  35  31 SW16      29.73F
MIDLAND        FAIR      65  35  32 SW15      29.71F
TROY           CLOUDY    61  41  48 S8        29.80F
SAGINAW HB     PTSUNNY   64  34  32 S12       29.73F
$$
MIZ043>046-050>051-056>058-064>065-071>073-077>080-040000-
SOUTHWEST LOWER MICHIGAN

CITY           SKY/WX    TMP DP  RH WIND       PRES   REMARKS
BATTLE CREEK   MOSUNNY   63  32  31 W10       29.80F
BENTON HARBOR  CLOUDY    62  37  39 SW9       29.80F
BIG RAPIDS     CLOUDY    61  32  32 SW10G18   29.73S
COLDWATER      PTSUNNY   63  34  33 NW7       29.80F
FREMONT        FAIR      60  33  36 SW12      29.75F
HOLLAND        MOSUNNY   61  36  39 SW13      29.78F
GRAND RAPIDS   PTSUNNY   64  35  34 W15       29.77F
IONIA          FAIR      63  33  33 W10       29.76F
KALAMAZOO      PTSUNNY   62  34  35 W12       29.80F
LUDINGTON      CLOUDY    58  39  49 S18G29    29.72F
MARSHALL       CLOUDY    64  35  34 W3        29.79S
MOUNT PLEASANT MOSUNNY   64  35  34 SW8G20    29.72F
MUSKEGON       PTSUNNY   57  35  43 S14       29.76F
SOUTH HAVEN    CLOUDY    63  34  34 SW12      29.79F
$$
MIZ016>042-040000-
NORTHERN LOWER MICHIGAN

CITY           SKY/WX    TMP DP  RH WIND       PRES   REMARKS
ALPENA         CLOUDY    62  39  42 E7        29.65F
BEAVER ISLAND  DRIZZLE   46  43  88 SW7       29.71S
BELLAIRE       CLOUDY    64  32  30 SW6       29.68F
CADILLAC       MOSUNNY   62  35  36 SW15      29.70F
CHARLEVOIX     LGT RAIN  50  38  63 W16G24    29.74R
FRANKFORT      CLOUDY    55  41  58 SW14G22   29.70S
GAYLORD        CLOUDY    62  30  29 W17G23    29.69R
GRAYLING       CLOUDY    63  32  31 W9        29.70S
HARBOR SPRINGS DRIZZLE   52  38  59 NW10G23   29.69R
HOUGHTON LAKE  MOSUNNY   62  32  32 W12G23    29.70S
MANISTEE       CLOUDY    61  36  39 S9        29.70F
OSCODA         CLOUDY    64  33  31 S14G21    29.68F
PELLSTON       LGT RAIN  53  39  59 NW14      29.70R
ROGERS CITY    CLOUDY    64  28  25 W12       29.66F
TRAVERSE CITY  CLOUDY    66  33  29 SW9G16    29.67S
$$
MIZ007>008-015-040000-
EASTERN UPPER MICHIGAN

CITY           SKY/WX    TMP DP  RH WIND       PRES   REMARKS
KINROSS          N/A     52  43  71 NW10      29.68R
MACKINAC ISLAN CLOUDY    50  38  65 W7        29.68S
NEWBERRY       LGT RAIN  49  48  94 SW7       29.67S
S. S. MARIE    CLOUDY    52  42  69 NW8       29.67S
MUNISING         N/A     53  47  79 VRB3      29.64S
$$
MIZ004>006-011>014-085-040000-
CENTRAL UPPER MICHIGAN

CITY           SKY/WX    TMP DP  RH WIND       PRES   REMARKS
MANISTIQUE     RAIN      49  48  95 SW8       29.68S
ESCANABA       CLOUDY    52  46  82 NW6       29.67F
MENOMINEE      RAIN      52  49  89 N6        29.72R
SAWYER-GWINN   MOSUNNY   54  45  71 W9        29.67R
$$
MIZ001>003-009>011-084-040000-
WESTERN UPPER MICHIGAN

CITY           SKY/WX    TMP DP  RH WIND       PRES   REMARKS
IRON MOUNTAIN  PTSUNNY   53  47  79 W7        29.65F
HOUGHTON       LGT RAIN  49  42  77 NW12      29.67R
COPPER HARBOR    N/A     49  41  74 N12       29.65R
IRONWOOD         N/A     52  43  71 NE3       29.68R
$$

ABBREVIATIONS USED IN REMARKS
   TC - TEMPERATURE IN CELSIUS
  WCI - WIND CHILL INDEX
   HX - HEAT INDEX
  VSB - VISIBILITY





USA.gov is the U.S. government's official web portal to all federal, state and local government web resources and services.